User: anonymous   Login
Location: Jetmore Oil Field
(38.1181°N, 99.9337°W)
Time: 06:27:14
(UTC+00:00)
Language:

Cosmos 1484 Rocket - Orbit

View from above orbital plane
View from above orbital plane
View from above satellite
View from above satellite

Ground track
Ground track

The orbit data is extracted from the following two-line orbital elements,

1 14208U 83075B   20152.82209927  .00000257  00000-0  18869-4 0  9997
2 14208  97.3957 137.0110 0038966   7.7873 352.3954 15.11118290 10511
Epoch (UTC): 31 May 2020 19:43:49
Eccentricity: 0.0038966
inclination: 97.3957°
perigee height: 506 km
apogee height: 560 km
right ascension of ascending node: 137.0110°
argument of perigee: 7.7873°
revolutions per day: 15.11118290
mean anomaly at epoch: 352.3954°
orbit number at epoch: 1051

The dashed part of the orbit path shows where the satellite is in the earth's shadow,  

DLR